Imrali, Turkey

10:44 AM +03 on January 21, 2017 (GMT +0300)
Ataturk International Airport

Weather History for LTBA - January, 2004

Change the Weather History Date:

Friday, January 23, 2004

  Actual Average Record
Temperature  
Mean Temperature 25 °F -  
Max Temperature 26 °F 47 °F 62 °F (2009)
Min Temperature 24 °F 37 °F 24 °F (2004)
Degree Days  
Heating Degree Days 40    
Moisture  
Dew Point 23 °F    
Average Humidity 88    
Maximum Humidity 100    
Minimum Humidity 69    
Precipitation  
Precipitation 0.00 in - - ()
Sea Level Pressure  
Sea Level Pressure 29.65 in    
Wind  
Wind Speed 20 mph ()    
Max Wind Speed 36 mph    
Max Gust Speed 44 mph    
Visibility 1.3 miles    
Events Snow    
Averages and records for this station are not official NWS values.
T = Trace of Precipitation, MM = Missing Value Source: Averaged Metar Reports

Daily Weather History Graph

Daily Weather History Graph

Search for Another Location

Airport or City:

Trip Planner

Search our weather history database for the weather conditions in past years. The results will help you decide how hot, cold, wet, or windy it might be!

Date:

Astronomy

Jan. 23, 2004 Rise Set
Actual Time 7:23 AM EET 5:09 PM EET
Civil Twilight 6:53 AM EET 5:39 PM EET
Nautical Twilight 6:20 AM EET 6:12 PM EET
Astronomical Twilight 5:47 AM EET 6:45 PM EET
Moon 8:49 AM EET (1/23) 6:58 PM EET (1/23)
Length of Visible Light 10h 45m
Length of Day
9h 46m
Waxing Crescent, 3% of the Moon is Illuminated
Jan 23
Waxing Crescent
Jan 29
First Quarter
Feb 6
Full
Feb 13
Last Quarter
Feb 20
New

Hourly Weather History & Observations

Time (EET) Temp. Windchill Dew Point Humidity Pressure Visibility Wind Dir Wind Speed Gust Speed Precip Events Conditions
12:20 AM 26.6 °F 9.8 °F 26.6 °F 100% 29.44 in 0.1 mi NNW 32.2 mph 43.7 mph N/A Snow Heavy Snow Showers
12:50 AM 26.6 °F 9.1 °F 24.8 °F 93% 29.44 in 0.2 mi NNW 35.7 mph - N/A Snow Heavy Snow Showers
1:20 AM 26.6 °F 9.8 °F 24.8 °F 93% 29.47 in 0.2 mi NNW 32.2 mph 43.7 mph N/A Snow Heavy Snow Showers
1:50 AM 26.6 °F 10.8 °F 24.8 °F 93% 29.50 in 0.4 mi NNW 27.6 mph 40.3 mph N/A Snow Heavy Snow Showers
2:20 AM 26.6 °F 11.7 °F 24.8 °F 93% 29.50 in 0.3 mi NNW 24.2 mph - N/A Snow Heavy Snow Showers
2:50 AM 26.6 °F 11.7 °F 24.8 °F 93% 29.53 in 0.4 mi NNW 24.2 mph - N/A Snow Heavy Snow Showers
3:20 AM 26.6 °F 11.1 °F 24.8 °F 93% 29.53 in 0.4 mi NNW 26.5 mph - N/A Snow Heavy Snow Showers
3:50 AM 26.6 °F 11.7 °F 24.8 °F 93% 29.53 in 0.6 mi NNW 24.2 mph - N/A Snow Heavy Snow Showers
4:20 AM 26.6 °F 12.7 °F 24.8 °F 93% 29.53 in 0.4 mi NNW 20.7 mph - N/A Snow Heavy Snow Showers
4:50 AM 26.6 °F 11.4 °F 24.8 °F 93% 29.56 in 0.6 mi NNW 25.3 mph - N/A Snow Heavy Snow Showers
5:20 AM 26.6 °F 12.4 °F 24.8 °F 93% 29.56 in 0.8 mi NW 21.9 mph - N/A Snow Snow Showers
5:50 AM 26.6 °F 12.4 °F 24.8 °F 93% 29.59 in 0.3 mi NNW 21.9 mph - N/A Snow Heavy Snow Showers
6:20 AM 26.6 °F 12.0 °F 24.8 °F 93% 29.59 in 0.4 mi NNW 23.0 mph - N/A Snow Snow Showers
6:50 AM 26.6 °F 11.7 °F 24.8 °F 93% 29.59 in 0.4 mi NNW 24.2 mph - N/A Snow Snow Showers
7:20 AM 26.6 °F 12.4 °F 24.8 °F 93% 29.59 in 0.7 mi NNW 21.9 mph 33.4 mph N/A Snow Snow Showers
7:50 AM 26.6 °F 12.0 °F 24.8 °F 93% 29.62 in 0.6 mi NW 23.0 mph - N/A Snow Heavy Snow Showers
8:20 AM 26.6 °F 12.4 °F 24.8 °F 93% 29.62 in 0.6 mi NW 21.9 mph - N/A Snow Heavy Snow Showers
8:50 AM 26.6 °F 12.7 °F 24.8 °F 93% 29.65 in 0.3 mi NW 20.7 mph - N/A Snow Heavy Snow Showers
9:20 AM - - - N/A% 29.65 in 0.1 mi NW 16.1 mph - N/A   Unknown
9:50 AM 26.6 °F 14.3 °F 24.8 °F 93% 29.65 in 0.1 mi NW 16.1 mph - N/A Snow Heavy Snow Showers
10:20 AM 26.6 °F 12.0 °F 24.8 °F 93% 29.65 in 0.1 mi NW 23.0 mph - N/A Snow Heavy Snow Showers
10:50 AM 26.6 °F 13.1 °F 24.8 °F 93% 29.68 in 0.1 mi NW 19.6 mph - N/A Snow Heavy Snow Showers
11:20 AM 26.6 °F 13.1 °F 24.8 °F 93% 29.68 in 0.2 mi NW 19.6 mph - N/A Snow Heavy Snow Showers
11:50 AM 24.8 °F 12.9 °F 24.8 °F 100% 29.68 in 0.2 mi WNW 13.8 mph - N/A Snow Heavy Snow Showers
12:20 PM 24.8 °F 12.9 °F 24.8 °F 100% 29.68 in 0.2 mi WNW 13.8 mph - N/A Snow Heavy Snow Showers
12:50 PM 24.8 °F 12.9 °F 24.8 °F 100% 29.68 in 0.3 mi WNW 13.8 mph - N/A Snow Heavy Snow Showers
1:20 PM 24.8 °F 12.9 °F 24.8 °F 100% 29.68 in 0.2 mi WNW 13.8 mph - N/A Snow Heavy Snow Showers
1:50 PM 26.6 °F 14.7 °F 24.8 °F 93% 29.68 in 0.5 mi WNW 15.0 mph - N/A Snow Heavy Snow Showers
2:20 PM 26.6 °F 14.7 °F 24.8 °F 93% 29.68 in 0.5 mi WNW 15.0 mph - N/A Snow Heavy Snow Showers
2:50 PM 26.6 °F 14.3 °F 24.8 °F 93% 29.68 in 0.6 mi WNW 16.1 mph - N/A Snow Heavy Snow Showers
3:20 PM 24.8 °F 11.9 °F 23.0 °F 93% 29.68 in 1.0 mi WNW 16.1 mph - N/A Snow Snow Showers
3:50 PM 26.6 °F 14.7 °F 23.0 °F 86% 29.68 in 1.0 mi WNW 15.0 mph - N/A Snow Snow Showers
4:20 PM 26.6 °F 14.3 °F 21.2 °F 80% 29.71 in 1.0 mi WNW 16.1 mph - N/A Snow Snow Showers
4:50 PM 24.8 °F 11.9 °F 21.2 °F 86% 29.71 in 1.0 mi WNW 16.1 mph - N/A Snow Snow Showers
5:20 PM 26.6 °F 14.7 °F 21.2 °F 80% 29.71 in - WNW 15.0 mph - N/A Snow Snow Showers
5:50 PM 26.6 °F 14.7 °F 19.4 °F 74% 29.71 in - WNW 15.0 mph - N/A Snow Snow Showers
6:20 PM 26.6 °F 15.2 °F 19.4 °F 74% 29.74 in - WNW 13.8 mph - N/A Snow Snow Showers
6:50 PM 26.6 °F 14.7 °F 19.4 °F 74% 29.74 in - WNW 15.0 mph - N/A Snow Light Snow Showers
7:20 PM 26.6 °F 15.7 °F 19.4 °F 74% 29.74 in 3.1 mi WNW 12.7 mph - N/A Snow Light Snow Showers
7:50 PM 26.6 °F 14.3 °F 19.4 °F 74% 29.74 in 4.3 mi WNW 16.1 mph - N/A Snow Light Snow Showers
8:20 PM 26.6 °F 14.7 °F 21.2 °F 80% 29.74 in 3.1 mi WNW 15.0 mph - N/A Snow Light Snow Showers
8:50 PM 26.6 °F 16.2 °F 21.2 °F 80% 29.77 in 3.7 mi West 11.5 mph - N/A Snow Light Snow Showers
9:20 PM 26.6 °F 16.8 °F 19.4 °F 74% 29.77 in 4.3 mi West 10.4 mph - N/A Snow Light Snow Showers
9:50 PM 26.6 °F 16.8 °F 19.4 °F 74% 29.77 in 6.2 mi West 10.4 mph - N/A   Overcast
10:20 PM 26.6 °F 15.7 °F 17.6 °F 69% 29.77 in 4.3 mi WNW 12.7 mph - N/A   Mostly Cloudy
10:50 PM 24.8 °F 13.4 °F 17.6 °F 74% 29.77 in 4.3 mi West 12.7 mph - N/A   Overcast
11:20 PM 24.8 °F 12.9 °F 17.6 °F 74% 29.77 in 4.3 mi West 13.8 mph - N/A   Overcast
11:50 PM 24.8 °F 14.0 °F 19.4 °F 80% 29.77 in 4.3 mi West 11.5 mph - N/A   Overcast